Taunton, MA

8:54 AM EDT on May 26, 2018 (GMT -0400)
Taunton Municipal

Weather History for KTAN - November, 2013

Change the Weather History Date:

Thursday, November 21, 2013

  Actual Average Record
Temperature  
Mean Temperature 33 °F -  
Max Temperature 48 °F 49 °F 69 °F (1991)
Min Temperature 18 °F 28 °F 13 °F (1966)
Degree Days  
Heating Degree Days 32    
Moisture  
Dew Point 22 °F    
Average Humidity 68    
Maximum Humidity 88    
Minimum Humidity 34    
Precipitation  
Precipitation 0.00 in - - ()
Sea Level Pressure  
Sea Level Pressure 30.55 in    
Wind  
Wind Speed 1 mph (SW)    
Max Wind Speed 9 mph    
Max Gust Speed -    
Visibility 10 miles    
Events      
Averages and records for this station are not official NWS values.
T = Trace of Precipitation, MM = Missing Value Source: NWS Daily Summary

Daily Weather History Graph

Daily Weather History Graph

Search for Another Location

Airport or City:

Astronomy

Nov. 21, 2013 Rise Set
Actual Time 6:41 AM EST 4:18 PM EST
Civil Twilight 6:10 AM EST 4:48 PM EST
Nautical Twilight 5:36 AM EST 5:23 PM EST
Astronomical Twilight 5:03 AM EST 5:56 PM EST
Moon 7:53 PM EST (11/21) 9:45 AM EST (11/21)
Length of Visible Light 10h 38m
Length of Day
9h 37m
Waning Gibbous, 85% of the Moon is Illuminated
Nov 21
Waning Gibbous
Nov 25
Last Quarter
Dec 2
New
Dec 9
First Quarter
Dec 17
Full

Hourly Weather History & Observations

Time (EST) Temp. Windchill Dew Point Humidity Pressure Visibility Wind Dir Wind Speed Gust Speed Precip Events Conditions
12:52 AM 18.0 °F - 15.1 °F 88% 30.62 in 8.0 mi Calm Calm - N/A   Clear
1:52 AM 18.0 °F - 14.0 °F 84% 30.63 in 10.0 mi Calm Calm - N/A   Clear
2:52 AM 18.0 °F - 14.0 °F 84% 30.62 in 10.0 mi Calm Calm - N/A   Clear
3:52 AM 18.0 °F - 15.1 °F 88% 30.61 in 10.0 mi Calm Calm - N/A   Clear
4:52 AM 18.0 °F - 14.0 °F 84% 30.62 in 10.0 mi Calm Calm - N/A   Clear
5:52 AM 18.0 °F - 14.0 °F 84% 30.62 in 10.0 mi Calm Calm - N/A   Clear
6:52 AM 19.0 °F - 15.1 °F 85% 30.64 in 10.0 mi Calm Calm - N/A   Clear
7:52 AM 27.0 °F - 21.9 °F 81% 30.63 in 9.0 mi Calm Calm - N/A   Clear
8:52 AM 32.0 °F - 21.0 °F 64% 30.61 in 10.0 mi Calm Calm - N/A   Clear
9:52 AM 39.9 °F - 24.1 °F 53% 30.61 in 10.0 mi Calm Calm - N/A   Clear
10:52 AM 46.0 °F 44.8 °F 25.0 °F 44% 30.59 in 10.0 mi Variable 3.5 mph - N/A   Clear
11:52 AM 48.0 °F - 25.0 °F 41% 30.57 in 10.0 mi WSW 8.1 mph - N/A   Clear
12:52 PM 48.9 °F - 24.1 °F 38% 30.55 in 10.0 mi WSW 9.2 mph - N/A   Clear
1:52 PM 48.9 °F - 23.0 °F 36% 30.52 in 10.0 mi Calm Calm - N/A   Clear
2:52 PM 48.0 °F - 21.0 °F 34% 30.50 in 10.0 mi Calm Calm - N/A   Clear
3:52 PM 44.1 °F 41.5 °F 23.0 °F 43% 30.50 in 10.0 mi SSW 4.6 mph - N/A   Clear
4:52 PM 39.0 °F - 25.0 °F 57% 30.49 in 10.0 mi Calm Calm - N/A   Clear
5:52 PM 34.0 °F - 26.1 °F 73% 30.49 in 10.0 mi Calm Calm - N/A   Clear
6:52 PM 32.0 °F - 26.1 °F 79% 30.48 in 10.0 mi Calm Calm - N/A   Clear
7:52 PM 35.1 °F - 28.0 °F 76% 30.47 in 10.0 mi Calm Calm - N/A   Clear
8:52 PM 35.1 °F 32.2 °F 28.0 °F 76% 30.45 in 10.0 mi ESE 3.5 mph - N/A   Clear
9:52 PM 35.1 °F - 28.9 °F 78% 30.45 in 10.0 mi Calm Calm - N/A   Scattered Clouds
10:52 PM 37.0 °F - 30.9 °F 79% 30.43 in 10.0 mi Calm Calm - N/A   Overcast
11:52 PM 37.0 °F - 32.0 °F 82% 30.40 in 10.0 mi Calm Calm - N/A   Overcast